This is the latest recevied weather packets stored in our database for station/object W7MB. If no packets are shown the sender has not sent any weather packets the latest 10 day(s).
| Time | Temp. | Humidity | Pressure | Rain* | Wind** | Luminosity | Snow |
|---|---|---|---|---|---|---|---|
| 1777752364 | 28.89° C | 37% | 1014.9 hPa | 0 mm | - | - | - |
| 1777752003 | 28.89° C | 37% | 1014.9 hPa | 0 mm | - | - | - |
| 1777751643 | 28.33° C | 34% | 1015 hPa | 0 mm | - | - | - |
| 1777751283 | 28.33° C | 37% | 1015 hPa | 0 mm | - | - | - |
| 1777750923 | 27.78° C | 35% | 1015.1 hPa | 0 mm | - | - | - |
| 1777750563 | 27.22° C | 41% | 1015.1 hPa | 0 mm | - | - | - |
| 1777750203 | 26.67° C | 39% | 1015.3 hPa | 0 mm | - | - | - |
| 1777749844 | 26.11° C | 35% | 1015.4 hPa | 0 mm | - | - | - |
| 1777749483 | 25.56° C | 45% | 1015.4 hPa | 0 mm | - | - | - |
| 1777749123 | 25.56° C | 38% | 1015.5 hPa | 0 mm | - | - | - |
| 1777748763 | 25° C | 40% | 1015.6 hPa | 0 mm | - | - | - |
| 1777748403 | 25° C | 46% | 1015.7 hPa | 0 mm | - | - | - |
| 1777748043 | 24.44° C | 37% | 1015.8 hPa | 0 mm | - | - | - |
| 1777747683 | 24.44° C | 36% | 1015.9 hPa | 0 mm | - | - | - |
| 1777747324 | 23.89° C | 46% | 1015.9 hPa | 0 mm | - | - | - |
| 1777746963 | 23.33° C | 43% | 1016 hPa | 0 mm | - | - | - |
| 1777746604 | 22.78° C | 46% | 1015.9 hPa | 0 mm | - | - | - |
| 1777746243 | 22.22° C | 47% | 1016.1 hPa | 0 mm | - | - | - |
| 1777745883 | 22.22° C | 47% | 1016.2 hPa | 0 mm | - | - | - |
| 1777745523 | 22.22° C | 45% | 1016.1 hPa | 0 mm | - | - | - |
| 1777745163 | 22.22° C | 45% | 1016.2 hPa | 0 mm | - | - | - |
| 1777744804 | 22.22° C | 45% | 1016.2 hPa | 0 mm | - | - | - |
| 1777744443 | 22.22° C | 44% | 1016.2 hPa | 0 mm | - | - | - |
| 1777744083 | 22.22° C | 46% | 1016.2 hPa | 0 mm | - | - | - |
| 1777743723 | 22.22° C | 49% | 1016.3 hPa | 0 mm | - | - | - |
* Rain latest hour (hover to see other rain measurements)
** Current wind speed in m/s (hover to see current wind gust speed)